This is the latest recevied weather packets stored in our database for station/object SP3ZBZ-13. If no packets are shown the sender has not sent any weather packets the latest 10 day(s).
| Time | Temp. | Humidity | Pressure | Rain* | Wind** | Luminosity | Snow |
|---|---|---|---|---|---|---|---|
| 1778059218 | 11.11° C | 84% | 1000.6 hPa | - | - | 158 W/m² | - |
| 1778058317 | 11.11° C | 85% | 1000.5 hPa | - | - | 165 W/m² | - |
| 1778057417 | 11.11° C | 86% | 1000.6 hPa | - | - | 100 W/m² | - |
| 1778056515 | 10.56° C | 87% | 1000.6 hPa | - | - | 115 W/m² | - |
| 1778055615 | 10.56° C | 87% | 1000.7 hPa | - | - | 108 W/m² | - |
| 1778054714 | 10.56° C | 87% | 1000.7 hPa | - | - | 101 W/m² | - |
| 1778053812 | 10° C | 88% | 1000.7 hPa | - | - | 93 W/m² | - |
| 1778052911 | 10° C | 89% | 1000.6 hPa | - | - | 76 W/m² | - |
| 1778052011 | 10° C | 89% | 1000.7 hPa | - | - | 84 W/m² | - |
| 1778051109 | 10° C | 88% | 1000.4 hPa | - | - | 76 W/m² | - |
| 1778050209 | 10° C | 88% | 1000.4 hPa | - | - | 50 W/m² | - |
| 1778049307 | 10° C | 88% | 1000.4 hPa | - | - | 47 W/m² | - |
| 1778048407 | 9.44° C | 88% | 1000.6 hPa | - | - | 33 W/m² | - |
| 1778047506 | 9.44° C | 88% | 1000.7 hPa | - | - | 32 W/m² | - |
| 1778046605 | 9.44° C | 88% | 1000.7 hPa | - | - | 50 W/m² | - |
| 1778045704 | 9.44° C | 87% | 1001 hPa | - | - | 25 W/m² | - |
| 1778044803 | 9.44° C | 88% | 1000.5 hPa | - | - | 26 W/m² | - |
| 1778043902 | 9.44° C | 90% | 1000.7 hPa | - | - | 37 W/m² | - |
| 1778043001 | 9.44° C | 90% | 1000.8 hPa | - | - | 49 W/m² | - |
| 1778042099 | 8.89° C | 90% | 1001.1 hPa | - | - | 31 W/m² | - |
| 1778041198 | 8.89° C | 91% | 1001.3 hPa | - | - | 17 W/m² | - |
| 1778040297 | 8.89° C | 92% | 1001.6 hPa | - | - | 6 W/m² | - |
| 1778039396 | 8.89° C | 92% | 1001.8 hPa | - | - | 7 W/m² | - |
| 1778038495 | 8.89° C | 92% | 1001.9 hPa | - | - | 2 W/m² | - |
| 1778037595 | 8.89° C | 92% | 1002.1 hPa | - | - | 1 W/m² | - |
* Rain since midnight (hover to see other rain measurements)
** Current wind speed in m/s (hover to see current wind gust speed)